Time,TemperatureF,DewpointF,PressureIn,WindDirection,WindDirectionDegrees,WindSpeedMPH,WindSpeedGustMPH,Humidity,HourlyPrecipIn,Conditions,Clouds,dailyrainin,SoftwareType,DateUTC
2013-05-10 00:00:00,66.9,63.6,30.04,SSE,157,0.0,0.0,89,0.00,,---,0.00,VWS V14.01,2013-05-10 04:00:00,
2013-05-10 00:01:00,66.9,63.6,30.04,SSE,157,0.0,0.0,89,0.00,,---,0.00,VWS V14.01,2013-05-10 04:01:00,
2013-05-10 00:06:00,66.6,63.3,30.04,SSE,157,0.0,0.0,89,0.00,,---,0.00,VWS V14.01,2013-05-10 04:06:00,
2013-05-10 00:11:00,66.4,63.1,30.04,SSE,157,0.0,0.0,89,0.00,,---,0.00,VWS V14.01,2013-05-10 04:11:00,
2013-05-10 00:16:00,66.3,63.3,30.04,SSE,157,0.0,0.0,90,0.00,,---,0.00,VWS V14.01,2013-05-10 04:16:00,
2013-05-10 00:21:00,66.1,63.4,30.04,SSE,157,0.0,0.0,91,0.00,,---,0.00,VWS V14.01,2013-05-10 04:21:00,
2013-05-10 00:27:00,66.0,63.3,30.04,SSE,157,0.0,0.0,91,0.00,,---,0.00,VWS V14.01,2013-05-10 04:27:00,
2013-05-10 00:30:00,66.0,63.3,30.04,SSE,157,0.0,0.0,91,0.00,,---,0.00,VWS V14.01,2013-05-10 04:30:00,
2013-05-10 00:32:00,65.8,63.1,30.04,SSE,157,0.0,0.0,91,0.00,,---,0.00,VWS V14.01,2013-05-10 04:32:00,
2013-05-10 00:37:00,65.6,62.9,30.04,SSE,157,0.0,0.0,91,0.00,,---,0.00,VWS V14.01,2013-05-10 04:37:00,
2013-05-10 00:42:00,65.6,62.9,30.04,SSE,157,0.0,0.0,91,0.00,,---,0.00,VWS V14.01,2013-05-10 04:42:00,
2013-05-10 00:47:00,65.5,62.8,30.04,SSE,157,0.0,0.0,91,0.00,,---,0.00,VWS V14.01,2013-05-10 04:47:00,
2013-05-10 00:52:00,65.3,62.9,30.04,SSE,157,0.0,0.0,92,0.00,,---,0.00,VWS V14.01,2013-05-10 04:52:00,
2013-05-10 00:57:00,65.3,63.2,30.04,SSE,157,0.0,0.0,93,0.00,,---,0.00,VWS V14.01,2013-05-10 04:57:00,
2013-05-10 01:00:00,65.3,63.2,30.04,SSE,157,0.0,0.0,93,0.00,,---,0.00,VWS V14.01,2013-05-10 05:00:00,
2013-05-10 01:02:00,65.3,63.2,30.04,SSE,157,0.0,0.0,93,0.00,,---,0.00,VWS V14.01,2013-05-10 05:02:00,
2013-05-10 01:07:00,65.2,63.1,30.04,SSE,157,0.0,0.0,93,0.00,,---,0.00,VWS V14.01,2013-05-10 05:07:00,
2013-05-10 01:12:00,65.0,62.9,30.04,SSE,157,0.0,0.0,93,0.00,,---,0.00,VWS V14.01,2013-05-10 05:12:00,
2013-05-10 01:17:00,65.0,62.9,30.04,SSE,157,0.0,0.0,93,0.00,,---,0.00,VWS V14.01,2013-05-10 05:17:00,
2013-05-10 01:22:00,65.0,62.9,30.04,SSE,157,0.0,0.0,93,0.00,,---,0.00,VWS V14.01,2013-05-10 05:22:00,
2013-05-10 01:27:00,64.8,62.7,30.04,SSE,157,0.0,0.0,93,0.00,,---,0.00,VWS V14.01,2013-05-10 05:27:00,
2013-05-10 01:30:00,64.8,62.7,30.04,SSE,157,0.0,0.0,93,0.00,,---,0.00,VWS V14.01,2013-05-10 05:30:00,
2013-05-10 01:32:00,64.8,62.7,30.04,SSE,157,0.0,0.0,93,0.00,,---,0.00,VWS V14.01,2013-05-10 05:32:00,
2013-05-10 01:37:00,64.7,62.6,30.04,SSE,157,0.0,0.0,93,0.00,,---,0.00,VWS V14.01,2013-05-10 05:37:00,
2013-05-10 01:42:00,64.7,62.6,30.04,SSE,157,0.0,0.0,93,0.00,,---,0.00,VWS V14.01,2013-05-10 05:42:00,
2013-05-10 01:47:00,64.5,62.7,30.04,SSE,157,0.0,0.0,94,0.00,,---,0.00,VWS V14.01,2013-05-10 05:47:00,
2013-05-10 01:52:00,64.5,62.7,30.04,SSE,157,0.0,0.0,94,0.00,,---,0.00,VWS V14.01,2013-05-10 05:52:00,
2013-05-10 01:57:00,64.3,62.5,30.04,SSE,157,0.0,0.0,94,0.00,,---,0.00,VWS V14.01,2013-05-10 05:57:00,
2013-05-10 02:00:00,64.3,62.5,30.03,SSE,157,0.0,0.0,94,0.00,,---,0.00,VWS V14.01,2013-05-10 06:00:00,
2013-05-10 02:02:00,64.2,62.4,30.03,SSE,157,0.0,0.0,94,0.00,,---,0.00,VWS V14.01,2013-05-10 06:02:00,
2013-05-10 02:07:00,64.2,62.4,30.03,SSE,157,0.0,0.0,94,0.00,,---,0.00,VWS V14.01,2013-05-10 06:07:00,
2013-05-10 02:12:00,64.0,62.2,30.03,SSE,157,0.0,0.0,94,0.00,,---,0.00,VWS V14.01,2013-05-10 06:12:00,
2013-05-10 02:17:00,64.0,62.2,30.03,SSE,157,0.0,0.0,94,0.00,,---,0.00,VWS V14.01,2013-05-10 06:17:00,
2013-05-10 02:22:00,63.9,62.1,30.03,SSE,157,0.0,0.0,94,0.00,,---,0.00,VWS V14.01,2013-05-10 06:22:00,
2013-05-10 02:28:00,63.9,62.4,30.03,SSE,157,0.0,0.0,95,0.00,,---,0.00,VWS V14.01,2013-05-10 06:28:00,
2013-05-10 02:30:00,63.9,62.4,30.02,SSE,157,0.0,0.0,95,0.00,,---,0.00,VWS V14.01,2013-05-10 06:30:00,
2013-05-10 02:33:00,63.9,62.4,30.02,SSE,157,0.0,0.0,95,0.00,,---,0.00,VWS V14.01,2013-05-10 06:33:00,
2013-05-10 02:38:00,63.7,62.2,30.02,SSE,157,0.0,0.0,95,0.00,,---,0.00,VWS V14.01,2013-05-10 06:38:00,
2013-05-10 02:43:00,63.7,62.2,30.02,SSE,157,0.0,0.0,95,0.00,,---,0.00,VWS V14.01,2013-05-10 06:43:00,
2013-05-10 02:48:00,63.5,62.0,30.02,SSE,157,0.0,0.0,95,0.00,,---,0.00,VWS V14.01,2013-05-10 06:48:00,
2013-05-10 02:53:00,63.4,62.0,30.02,SSE,157,0.0,0.0,95,0.00,,---,0.00,VWS V14.01,2013-05-10 06:53:00,
2013-05-10 02:58:00,63.4,62.0,30.02,SSE,157,0.0,0.0,95,0.00,,---,0.00,VWS V14.01,2013-05-10 06:58:00,
2013-05-10 03:00:00,63.4,62.0,30.02,SSE,157,0.0,0.0,95,0.00,,---,0.00,VWS V14.01,2013-05-10 07:00:00,
2013-05-10 03:03:00,63.4,62.0,30.02,SSE,157,0.0,0.0,95,0.00,,---,0.00,VWS V14.01,2013-05-10 07:03:00,
2013-05-10 03:08:00,63.2,61.8,30.02,SSE,157,0.0,0.0,95,0.00,,---,0.00,VWS V14.01,2013-05-10 07:08:00,
2013-05-10 03:13:00,63.2,61.8,30.02,SSE,157,0.0,0.0,95,0.00,,---,0.00,VWS V14.01,2013-05-10 07:13:00,
2013-05-10 03:18:00,63.2,61.8,30.02,SSE,157,0.0,0.0,95,0.00,,---,0.00,VWS V14.01,2013-05-10 07:18:00,
2013-05-10 03:23:00,63.1,61.9,30.02,SSE,157,0.0,0.0,96,0.00,,---,0.00,VWS V14.01,2013-05-10 07:23:00,
2013-05-10 03:28:00,63.1,61.9,30.02,SSE,157,0.0,0.0,96,0.00,,---,0.00,VWS V14.01,2013-05-10 07:28:00,
2013-05-10 03:30:00,63.1,61.9,30.02,SSE,157,0.0,0.0,96,0.00,,---,0.00,VWS V14.01,2013-05-10 07:30:00,
2013-05-10 03:33:00,62.9,61.8,30.02,SSE,157,0.0,0.0,96,0.00,,---,0.00,VWS V14.01,2013-05-10 07:33:00,
2013-05-10 03:38:00,62.9,61.8,30.02,SSE,157,0.0,0.0,96,0.00,,---,0.00,VWS V14.01,2013-05-10 07:38:00,
2013-05-10 03:43:00,62.9,61.8,30.02,SSE,157,0.0,0.0,96,0.00,,---,0.00,VWS V14.01,2013-05-10 07:43:00,
2013-05-10 03:48:00,62.7,61.5,30.02,SSE,157,0.0,0.0,96,0.00,,---,0.00,VWS V14.01,2013-05-10 07:48:00,
2013-05-10 03:53:00,62.7,61.5,30.02,SSE,157,0.0,0.0,96,0.00,,---,0.00,VWS V14.01,2013-05-10 07:53:00,
2013-05-10 03:58:00,62.6,61.5,30.02,SSE,157,0.0,0.0,96,0.00,,---,0.00,VWS V14.01,2013-05-10 07:58:00,
2013-05-10 04:00:00,62.6,61.5,30.02,SSE,157,0.0,0.0,96,0.00,,---,0.00,VWS V14.01,2013-05-10 08:00:00,
2013-05-10 04:03:00,62.6,61.7,30.02,SSE,157,0.0,0.0,97,0.00,,---,0.00,VWS V14.01,2013-05-10 08:03:00,
2013-05-10 04:08:00,62.6,61.7,30.02,SSE,157,0.0,0.0,97,0.00,,---,0.00,VWS V14.01,2013-05-10 08:08:00,
2013-05-10 04:13:00,62.3,61.4,30.02,SSE,157,0.0,0.0,97,0.00,,---,0.00,VWS V14.01,2013-05-10 08:13:00,
2013-05-10 04:18:00,62.3,61.4,30.01,SSE,157,0.0,0.0,97,0.00,,---,0.00,VWS V14.01,2013-05-10 08:18:00,
2013-05-10 04:23:00,62.1,61.2,30.01,SSE,157,0.0,0.0,97,0.00,,---,0.00,VWS V14.01,2013-05-10 08:23:00,
2013-05-10 04:28:00,62.1,61.2,30.01,SSE,157,0.0,0.0,97,0.00,,---,0.00,VWS V14.01,2013-05-10 08:28:00,
2013-05-10 04:30:00,62.0,61.1,30.00,SSE,157,0.0,0.0,97,0.00,,---,0.00,VWS V14.01,2013-05-10 08:30:00,
2013-05-10 04:33:00,61.8,60.9,30.00,SSE,157,0.0,0.0,97,0.00,,---,0.00,VWS V14.01,2013-05-10 08:33:00,
2013-05-10 04:38:00,61.8,60.9,30.00,SSE,157,0.0,0.0,97,0.00,,---,0.00,VWS V14.01,2013-05-10 08:38:00,
2013-05-10 04:43:00,61.8,60.9,30.00,SSE,157,0.0,0.0,97,0.00,,---,0.00,VWS V14.01,2013-05-10 08:43:00,
2013-05-10 04:48:00,61.6,60.7,30.00,SSE,157,0.0,0.0,97,0.00,,---,0.00,VWS V14.01,2013-05-10 08:48:00,
2013-05-10 04:53:00,61.5,60.6,30.00,SSE,157,0.0,0.0,97,0.00,,---,0.00,VWS V14.01,2013-05-10 08:53:00,
2013-05-10 04:58:00,61.5,60.6,30.00,SSE,157,0.0,0.0,97,0.00,,---,0.00,VWS V14.01,2013-05-10 08:58:00,
2013-05-10 05:00:00,61.5,60.6,29.99,SSE,157,0.0,0.0,97,0.00,,---,0.00,VWS V14.01,2013-05-10 09:00:00,
2013-05-10 05:03:00,61.5,60.9,29.99,SSE,157,0.0,0.0,98,0.00,,---,0.00,VWS V14.01,2013-05-10 09:03:00,
2013-05-10 05:08:00,61.5,60.9,29.99,SSE,157,0.0,0.0,98,0.00,,---,0.00,VWS V14.01,2013-05-10 09:08:00,
2013-05-10 05:13:00,61.3,60.7,29.99,SSE,157,0.0,0.0,98,0.00,,---,0.00,VWS V14.01,2013-05-10 09:13:00,
2013-05-10 05:18:00,61.2,60.6,29.99,SSE,157,0.0,0.0,98,0.00,,---,0.00,VWS V14.01,2013-05-10 09:18:00,
2013-05-10 05:23:00,61.2,60.6,29.99,SSE,157,0.0,0.0,98,0.00,,---,0.00,VWS V14.01,2013-05-10 09:23:00,
2013-05-10 05:28:00,61.2,60.6,29.99,SSE,157,0.0,0.0,98,0.00,,---,0.00,VWS V14.01,2013-05-10 09:28:00,
2013-05-10 05:30:00,61.2,60.6,29.99,SSE,157,0.0,0.0,98,0.00,,---,0.00,VWS V14.01,2013-05-10 09:30:00,
2013-05-10 05:33:00,61.2,60.6,29.99,SSE,157,0.0,0.0,98,0.00,,---,0.00,VWS V14.01,2013-05-10 09:33:00,
2013-05-10 05:38:00,61.2,60.6,29.99,SSE,157,0.0,0.0,98,0.00,,---,0.00,VWS V14.01,2013-05-10 09:38:00,
2013-05-10 05:43:00,61.0,60.4,29.99,SSE,157,0.0,0.0,98,0.00,,---,0.00,VWS V14.01,2013-05-10 09:43:00,
2013-05-10 05:48:00,61.0,60.4,29.99,SSE,157,0.0,0.0,98,0.00,,---,0.00,VWS V14.01,2013-05-10 09:48:00,
2013-05-10 05:53:00,61.0,60.4,29.99,SSE,157,0.0,0.0,98,0.00,,---,0.00,VWS V14.01,2013-05-10 09:53:00,
2013-05-10 05:58:00,60.9,60.3,29.99,SSE,157,0.0,0.0,98,0.00,,---,0.00,VWS V14.01,2013-05-10 09:58:00,
2013-05-10 06:00:00,60.9,60.3,30.00,SSE,157,0.0,0.0,98,0.00,,---,0.00,VWS V14.01,2013-05-10 10:00:00,
2013-05-10 06:03:00,60.9,60.6,30.00,SSE,157,0.0,0.0,99,0.00,,---,0.00,VWS V14.01,2013-05-10 10:03:00,
2013-05-10 06:08:00,60.7,60.4,30.00,SSE,157,0.0,0.0,99,0.00,,---,0.00,VWS V14.01,2013-05-10 10:08:00,
2013-05-10 06:13:00,60.7,60.4,30.00,SSE,157,0.0,0.0,99,0.00,,---,0.00,VWS V14.01,2013-05-10 10:13:00,
2013-05-10 06:18:00,60.7,60.4,30.00,SSE,157,0.0,0.0,99,0.00,,---,0.00,VWS V14.01,2013-05-10 10:18:00,
2013-05-10 06:23:00,60.7,60.4,30.00,SSE,157,0.0,0.0,99,0.00,,---,0.00,VWS V14.01,2013-05-10 10:23:00,
2013-05-10 06:28:00,60.5,60.2,30.00,SSE,157,0.0,0.0,99,0.00,,---,0.00,VWS V14.01,2013-05-10 10:28:00,
2013-05-10 06:30:00,60.5,60.2,30.00,SSE,157,0.0,0.0,99,0.00,,---,0.00,VWS V14.01,2013-05-10 10:30:00,
2013-05-10 06:33:00,60.4,60.1,30.00,SSE,157,0.0,0.0,99,0.00,,---,0.00,VWS V14.01,2013-05-10 10:33:00,
2013-05-10 06:38:00,60.4,60.1,30.00,SSE,157,0.0,0.0,99,0.00,,---,0.00,VWS V14.01,2013-05-10 10:38:00,
2013-05-10 06:43:00,60.4,60.1,30.00,SSE,158,0.0,0.0,99,0.00,,---,0.00,VWS V14.01,2013-05-10 10:43:00,
2013-05-10 06:48:00,60.4,60.1,30.00,ENE,76,0.0,0.0,99,0.00,,---,0.00,VWS V14.01,2013-05-10 10:48:00,
2013-05-10 06:53:00,60.4,60.1,30.00,ENE,76,0.0,0.0,99,0.00,,---,0.00,VWS V14.01,2013-05-10 10:53:00,
2013-05-10 06:58:00,60.4,60.1,30.00,ENE,76,0.0,0.0,99,0.00,,---,0.00,VWS V14.01,2013-05-10 10:58:00,
2013-05-10 07:00:00,60.4,60.4,30.00,ENE,76,0.0,0.0,100,0.00,,---,0.00,VWS V14.01,2013-05-10 11:00:00,
2013-05-10 07:03:00,60.4,60.1,30.00,ENE,76,0.0,0.0,99,0.00,,---,0.00,VWS V14.01,2013-05-10 11:03:00,
2013-05-10 07:08:00,60.4,60.1,30.00,ENE,76,0.0,0.0,99,0.00,,---,0.00,VWS V14.01,2013-05-10 11:08:00,
2013-05-10 07:13:00,60.5,60.2,30.00,East,85,0.0,0.0,99,0.00,,---,0.00,VWS V14.01,2013-05-10 11:13:00,
2013-05-10 07:18:00,60.7,60.4,30.01,East,85,0.0,0.0,99,0.00,,---,0.00,VWS V14.01,2013-05-10 11:18:00,
2013-05-10 07:23:00,60.7,60.7,30.01,East,85,0.0,0.0,100,0.00,,---,0.00,VWS V14.01,2013-05-10 11:23:00,
2013-05-10 07:28:00,60.9,60.9,30.01,East,85,0.0,0.0,100,0.00,,---,0.00,VWS V14.01,2013-05-10 11:28:00,
2013-05-10 07:30:00,61.0,61.0,30.00,East,85,0.0,0.0,100,0.00,,---,0.00,VWS V14.01,2013-05-10 11:30:00,
2013-05-10 07:33:00,61.3,61.3,30.00,East,85,0.0,0.0,100,0.00,,---,0.00,VWS V14.01,2013-05-10 11:33:00,
2013-05-10 07:38:00,61.5,61.5,30.00,East,85,0.0,0.0,100,0.00,,---,0.00,VWS V14.01,2013-05-10 11:38:00,
2013-05-10 07:43:00,62.1,62.1,30.00,East,85,0.0,0.0,100,0.00,,---,0.00,VWS V14.01,2013-05-10 11:43:00,
2013-05-10 07:48:00,62.6,62.6,30.00,East,85,0.0,0.0,100,0.00,,---,0.00,VWS V14.01,2013-05-10 11:48:00,
2013-05-10 07:53:00,63.1,63.1,30.00,East,85,0.0,0.0,100,0.00,,---,0.00,VWS V14.01,2013-05-10 11:53:00,
2013-05-10 07:58:00,63.5,63.5,30.00,East,85,0.0,0.0,100,0.00,,---,0.00,VWS V14.01,2013-05-10 11:58:00,
2013-05-10 08:00:00,63.5,63.5,30.00,East,85,0.0,0.0,100,0.00,,---,0.00,VWS V14.01,2013-05-10 12:00:00,
2013-05-10 08:03:00,64.2,64.2,30.00,East,85,0.0,0.0,100,0.00,,---,0.00,VWS V14.01,2013-05-10 12:03:00,
2013-05-10 08:08:00,64.5,64.5,30.00,East,85,0.0,0.0,100,0.00,,---,0.00,VWS V14.01,2013-05-10 12:08:00,
2013-05-10 08:13:00,65.0,65.0,30.00,East,85,0.0,0.0,100,0.00,,---,0.00,VWS V14.01,2013-05-10 12:13:00,
2013-05-10 08:18:00,65.6,65.6,30.01,East,85,0.0,0.0,100,0.00,,---,0.00,VWS V14.01,2013-05-10 12:18:00,
2013-05-10 08:23:00,65.8,65.8,30.01,East,85,0.0,0.0,100,0.00,,---,0.00,VWS V14.01,2013-05-10 12:23:00,
2013-05-10 08:28:00,66.3,66.0,30.01,East,85,0.0,0.0,99,0.00,,---,0.00,VWS V14.01,2013-05-10 12:28:00,
2013-05-10 08:30:00,66.3,66.0,30.01,East,85,0.0,0.0,99,0.00,,---,0.00,VWS V14.01,2013-05-10 12:30:00,
2013-05-10 08:33:00,66.4,66.1,30.01,East,85,0.0,0.0,99,0.00,,---,0.00,VWS V14.01,2013-05-10 12:33:00,
2013-05-10 08:38:00,66.9,66.6,30.01,East,85,0.0,0.0,99,0.00,,---,0.00,VWS V14.01,2013-05-10 12:38:00,
2013-05-10 08:43:00,67.1,66.8,30.01,East,85,0.0,0.0,99,0.00,,---,0.00,VWS V14.01,2013-05-10 12:43:00,
2013-05-10 08:48:00,67.8,67.5,30.01,East,85,0.0,0.0,99,0.00,,---,0.00,VWS V14.01,2013-05-10 12:48:00,
2013-05-10 08:53:00,68.4,68.1,30.01,East,85,0.0,0.0,99,0.00,,---,0.00,VWS V14.01,2013-05-10 12:53:00,
2013-05-10 08:58:00,69.4,65.4,30.01,East,85,0.0,0.0,87,0.00,,---,0.00,VWS V14.01,2013-05-10 12:58:00,
2013-05-10 09:00:00,69.9,64.5,30.01,East,85,0.0,0.0,83,0.00,,---,0.00,VWS V14.01,2013-05-10 13:00:00,
2013-05-10 09:03:00,70.8,65.4,30.01,East,85,0.0,0.0,83,0.00,,---,0.00,VWS V14.01,2013-05-10 13:03:00,
2013-05-10 09:08:00,72.0,64.0,30.01,ESE,117,0.0,0.0,76,0.00,,---,0.00,VWS V14.01,2013-05-10 13:08:00,
2013-05-10 09:13:00,73.0,63.0,30.01,ESE,119,0.0,0.0,71,0.00,,---,0.00,VWS V14.01,2013-05-10 13:13:00,
2013-05-10 09:18:00,74.0,64.0,30.01,ESE,116,0.0,0.0,71,0.00,,---,0.00,VWS V14.01,2013-05-10 13:18:00,
2013-05-10 09:23:00,74.6,63.3,30.01,East,96,0.0,0.0,68,0.00,,---,0.00,VWS V14.01,2013-05-10 13:23:00,
2013-05-10 09:28:00,74.9,63.6,30.01,East,96,0.0,0.0,68,0.00,,---,0.00,VWS V14.01,2013-05-10 13:28:00,
2013-05-10 09:30:00,75.3,64.0,30.01,East,96,0.0,0.0,68,0.00,,---,0.00,VWS V14.01,2013-05-10 13:30:00,
2013-05-10 09:33:00,75.3,64.0,30.01,South,176,0.0,0.0,68,0.00,,---,0.00,VWS V14.01,2013-05-10 13:33:00,
2013-05-10 09:38:00,76.0,63.0,30.01,ESE,119,0.0,0.0,64,0.00,,---,0.00,VWS V14.01,2013-05-10 13:38:00,
2013-05-10 09:43:00,76.5,63.4,30.01,ESE,119,0.0,0.0,64,0.00,,---,0.00,VWS V14.01,2013-05-10 13:43:00,
2013-05-10 09:48:00,77.0,63.9,30.01,ESE,119,0.0,0.0,64,0.00,,---,0.00,VWS V14.01,2013-05-10 13:48:00,
2013-05-10 09:53:00,77.4,62.4,30.01,East,99,1.0,1.0,60,0.00,,---,0.00,VWS V14.01,2013-05-10 13:53:00,
2013-05-10 09:58:00,77.6,63.6,30.01,ESE,109,0.0,1.0,62,0.00,,---,0.00,VWS V14.01,2013-05-10 13:58:00,
2013-05-10 10:00:00,77.6,63.6,30.01,ESE,109,0.0,1.0,62,0.00,,---,0.00,VWS V14.01,2013-05-10 14:00:00,
2013-05-10 10:03:00,77.9,63.4,30.01,ESE,109,0.0,0.0,61,0.00,,---,0.00,VWS V14.01,2013-05-10 14:03:00,
2013-05-10 10:08:00,78.1,63.1,30.01,ESE,103,0.0,1.0,60,0.00,,---,0.00,VWS V14.01,2013-05-10 14:08:00,
2013-05-10 10:13:00,78.5,63.0,30.01,ESE,103,0.0,1.0,59,0.00,,---,0.00,VWS V14.01,2013-05-10 14:13:00,
2013-05-10 10:18:00,78.5,63.5,30.01,SSE,147,0.0,1.0,60,0.00,,---,0.00,VWS V14.01,2013-05-10 14:18:00,
2013-05-10 10:23:00,78.8,63.3,30.01,SE,141,0.0,1.0,59,0.00,,---,0.00,VWS V14.01,2013-05-10 14:23:00,
2013-05-10 10:28:00,79.4,63.8,30.01,ESE,106,0.0,1.0,59,0.00,,---,0.00,VWS V14.01,2013-05-10 14:28:00,
2013-05-10 10:30:00,79.6,64.0,30.01,ESE,106,0.0,1.0,59,0.00,,---,0.00,VWS V14.01,2013-05-10 14:30:00,
2013-05-10 10:33:00,79.9,65.7,30.01,ESE,107,0.0,0.0,62,0.00,,---,0.00,VWS V14.01,2013-05-10 14:33:00,
2013-05-10 10:38:00,79.9,65.3,30.01,ESE,106,0.0,0.0,61,0.00,,---,0.00,VWS V14.01,2013-05-10 14:38:00,
2013-05-10 10:43:00,79.9,65.7,30.01,ESE,106,0.0,0.0,62,0.00,,---,0.00,VWS V14.01,2013-05-10 14:43:00,
2013-05-10 10:48:00,80.1,66.4,30.00,ESE,102,0.0,0.0,63,0.00,,---,0.00,VWS V14.01,2013-05-10 14:48:00,
2013-05-10 10:53:00,81.1,65.9,30.00,ESE,102,0.0,0.0,60,0.00,,---,0.00,VWS V14.01,2013-05-10 14:53:00,
2013-05-10 10:58:00,81.2,66.0,30.00,ESE,102,0.0,0.0,60,0.00,,---,0.00,VWS V14.01,2013-05-10 14:58:00,
2013-05-10 11:00:00,81.2,65.5,30.01,ESE,102,0.0,0.0,59,0.00,,---,0.00,VWS V14.01,2013-05-10 15:00:00,
2013-05-10 11:03:00,81.4,65.7,30.01,ESE,102,0.0,0.0,59,0.00,,---,0.00,VWS V14.01,2013-05-10 15:03:00,
2013-05-10 11:08:00,81.8,66.1,30.01,WNW,284,0.0,0.0,59,0.00,,---,0.00,VWS V14.01,2013-05-10 15:08:00,
2013-05-10 11:13:00,81.8,65.6,30.01,East,92,0.0,0.0,58,0.00,,---,0.00,VWS V14.01,2013-05-10 15:13:00,
2013-05-10 11:18:00,82.2,66.5,30.01,West,260,0.0,0.0,59,0.00,,---,0.00,VWS V14.01,2013-05-10 15:18:00,
2013-05-10 11:23:00,82.6,66.3,30.01,East,83,0.0,0.0,58,0.00,,---,0.00,VWS V14.01,2013-05-10 15:23:00,
2013-05-10 11:28:00,83.0,65.7,30.01,NNW,342,0.0,0.0,56,0.00,,---,0.00,VWS V14.01,2013-05-10 15:28:00,
2013-05-10 11:30:00,83.2,64.8,30.02,SE,141,0.0,0.0,54,0.00,,---,0.00,VWS V14.01,2013-05-10 15:30:00,
2013-05-10 11:33:00,82.4,63.6,30.02,NW,325,0.0,1.0,53,0.00,,---,0.00,VWS V14.01,2013-05-10 15:33:00,
2013-05-10 11:38:00,83.0,65.7,30.02,North,0,0.0,1.0,56,0.00,,---,0.00,VWS V14.01,2013-05-10 15:38:00,
2013-05-10 11:43:00,83.6,64.1,30.02,ESE,117,0.0,1.0,52,0.00,,---,0.00,VWS V14.01,2013-05-10 15:43:00,
2013-05-10 11:48:00,83.8,66.4,30.02,North,4,0.0,1.0,56,0.00,,---,0.00,VWS V14.01,2013-05-10 15:48:00,
2013-05-10 11:53:00,84.0,66.1,30.02,South,174,0.0,1.0,55,0.00,,---,0.00,VWS V14.01,2013-05-10 15:53:00,
2013-05-10 11:58:00,84.3,65.3,30.02,SE,141,0.0,1.0,53,0.00,,---,0.00,VWS V14.01,2013-05-10 15:58:00,
2013-05-10 12:00:00,84.3,65.9,30.02,SSW,195,0.0,1.0,54,0.00,,---,0.00,VWS V14.01,2013-05-10 16:00:00,
2013-05-10 12:03:00,84.7,64.6,30.02,ESE,119,0.0,0.0,51,0.00,,---,0.00,VWS V14.01,2013-05-10 16:03:00,
2013-05-10 12:08:00,85.1,66.6,30.02,NE,35,0.0,0.0,54,0.00,,---,0.00,VWS V14.01,2013-05-10 16:08:00,
2013-05-10 12:13:00,85.1,66.1,30.02,North,1,0.0,0.0,53,0.00,,---,0.00,VWS V14.01,2013-05-10 16:13:00,
2013-05-10 12:18:00,85.1,64.4,30.02,ESE,114,0.0,1.0,50,0.00,,---,0.00,VWS V14.01,2013-05-10 16:18:00,
2013-05-10 12:23:00,85.3,66.2,30.02,East,92,0.0,3.0,53,0.00,,---,0.00,VWS V14.01,2013-05-10 16:23:00,
2013-05-10 12:28:00,85.7,66.6,30.02,NW,306,0.0,3.0,53,0.00,,---,0.00,VWS V14.01,2013-05-10 16:28:00,
2013-05-10 12:30:00,85.7,66.6,30.02,NW,306,0.0,3.0,53,0.00,,---,0.00,VWS V14.01,2013-05-10 16:30:00,
2013-05-10 12:33:00,85.9,65.7,30.02,SE,130,0.0,1.0,51,0.00,,---,0.00,VWS V14.01,2013-05-10 16:33:00,
2013-05-10 12:38:00,85.5,63.0,30.02,SE,140,0.0,3.0,47,0.00,,---,0.00,VWS V14.01,2013-05-10 16:38:00,
2013-05-10 12:43:00,85.7,64.9,30.02,SE,140,0.0,3.0,50,0.00,,---,0.00,VWS V14.01,2013-05-10 16:43:00,
2013-05-10 12:48:00,86.1,65.3,30.02,SE,143,0.0,3.0,50,0.00,,---,0.00,VWS V14.01,2013-05-10 16:48:00,
2013-05-10 12:53:00,85.7,64.4,30.02,SE,137,0.0,3.0,49,0.00,,---,0.00,VWS V14.01,2013-05-10 16:53:00,
2013-05-10 12:58:00,85.7,64.9,30.02,West,264,0.0,3.0,50,0.00,,---,0.00,VWS V14.01,2013-05-10 16:58:00,
2013-05-10 13:00:00,85.7,65.5,30.02,SSW,203,0.0,3.0,51,0.00,,---,0.00,VWS V14.01,2013-05-10 17:00:00,
2013-05-10 13:03:00,85.9,65.7,30.02,East,93,0.0,0.0,51,0.00,,---,0.00,VWS V14.01,2013-05-10 17:03:00,
2013-05-10 13:08:00,85.9,64.0,30.02,WSW,256,0.0,2.0,48,0.00,,---,0.00,VWS V14.01,2013-05-10 17:08:00,
2013-05-10 13:13:00,86.5,65.1,30.02,ESE,112,0.0,2.0,49,0.00,,---,0.00,VWS V14.01,2013-05-10 17:13:00,
2013-05-10 13:18:00,86.3,63.7,30.01,East,89,0.0,3.0,47,0.00,,---,0.00,VWS V14.01,2013-05-10 17:18:00,
2013-05-10 13:23:00,86.5,65.1,30.01,WNW,287,0.0,3.0,49,0.00,,---,0.00,VWS V14.01,2013-05-10 17:23:00,
2013-05-10 13:28:00,86.1,66.4,30.01,SE,131,0.0,3.0,52,0.00,,---,0.00,VWS V14.01,2013-05-10 17:28:00,
2013-05-10 13:30:00,86.1,66.4,30.00,ESE,116,0.0,3.0,52,0.00,,---,0.00,VWS V14.01,2013-05-10 17:30:00,
2013-05-10 13:33:00,86.1,65.3,30.00,NNW,346,0.0,0.0,50,0.00,,---,0.00,VWS V14.01,2013-05-10 17:33:00,
2013-05-10 13:38:00,85.9,65.7,30.00,NE,48,0.0,0.0,51,0.00,,---,0.00,VWS V14.01,2013-05-10 17:38:00,
2013-05-10 13:43:00,85.9,64.0,30.00,East,97,0.0,2.0,48,0.00,,---,0.00,VWS V14.01,2013-05-10 17:43:00,
2013-05-10 13:48:00,85.5,61.8,30.00,East,79,0.0,5.0,45,0.00,,---,0.00,VWS V14.01,2013-05-10 17:48:00,
2013-05-10 13:53:00,85.7,64.4,30.00,SE,130,0.0,5.0,49,0.00,,---,0.00,VWS V14.01,2013-05-10 17:53:00,
2013-05-10 13:58:00,85.7,64.4,30.00,NE,34,0.0,5.0,49,0.00,,---,0.00,VWS V14.01,2013-05-10 17:58:00,
2013-05-10 14:00:00,85.9,64.5,29.99,North,7,0.0,5.0,49,0.00,,---,0.00,VWS V14.01,2013-05-10 18:00:00,
2013-05-10 14:04:00,86.1,64.7,29.99,NE,56,0.0,0.0,49,0.00,,---,0.00,VWS V14.01,2013-05-10 18:04:00,
2013-05-10 14:08:00,86.1,64.7,29.99,East,95,0.0,1.0,49,0.00,,---,0.00,VWS V14.01,2013-05-10 18:08:00,
2013-05-10 14:13:00,85.7,65.5,29.99,East,92,0.0,1.0,51,0.00,,---,0.00,VWS V14.01,2013-05-10 18:13:00,
2013-05-10 14:18:00,84.9,62.4,29.99,ENE,72,1.0,6.0,47,0.00,,---,0.00,VWS V14.01,2013-05-10 18:18:00,
2013-05-10 14:23:00,84.5,65.5,29.99,SE,133,0.0,6.0,53,0.00,,---,0.00,VWS V14.01,2013-05-10 18:23:00,
2013-05-10 14:28:00,85.3,64.6,29.99,East,99,0.0,6.0,50,0.00,,---,0.00,VWS V14.01,2013-05-10 18:28:00,
2013-05-10 14:30:00,85.5,64.8,29.99,ESE,121,0.0,6.0,50,0.00,,---,0.00,VWS V14.01,2013-05-10 18:30:00,
2013-05-10 14:34:00,84.9,63.6,29.99,SE,131,0.0,5.0,49,0.00,,---,0.00,VWS V14.01,2013-05-10 18:34:00,
2013-05-10 14:39:00,85.1,65.0,29.99,ESE,106,0.0,5.0,51,0.00,,---,0.00,VWS V14.01,2013-05-10 18:39:00,
2013-05-10 14:44:00,85.5,64.2,29.99,East,88,0.0,5.0,49,0.00,,---,0.00,VWS V14.01,2013-05-10 18:44:00,
2013-05-10 14:48:00,85.5,64.2,29.98,SSE,162,0.0,5.0,49,0.00,,---,0.00,VWS V14.01,2013-05-10 18:48:00,
2013-05-10 14:53:00,85.5,62.4,29.98,ESE,106,0.0,5.0,46,0.00,,---,0.00,VWS V14.01,2013-05-10 18:53:00,
2013-05-10 14:58:00,84.7,64.0,29.98,ENE,76,0.0,8.0,50,0.00,,---,0.00,VWS V14.01,2013-05-10 18:58:00,
2013-05-10 15:00:00,84.9,63.6,29.98,SE,127,0.0,8.0,49,0.00,,---,0.00,VWS V14.01,2013-05-10 19:00:00,
2013-05-10 15:04:00,85.1,63.8,29.98,East,93,0.0,0.0,49,0.00,,---,0.00,VWS V14.01,2013-05-10 19:04:00,
2013-05-10 15:09:00,84.5,63.3,29.98,SSE,167,0.0,2.0,49,0.00,,---,0.00,VWS V14.01,2013-05-10 19:09:00,
2013-05-10 15:14:00,84.7,63.5,29.98,East,89,0.0,7.0,49,0.00,,---,0.00,VWS V14.01,2013-05-10 19:14:00,
2013-05-10 15:19:00,85.1,64.4,29.97,East,79,0.0,7.0,50,0.00,,---,0.00,VWS V14.01,2013-05-10 19:19:00,
2013-05-10 15:24:00,85.3,64.6,29.97,ESE,103,0.0,7.0,50,0.00,,---,0.00,VWS V14.01,2013-05-10 19:24:00,
2013-05-10 15:29:00,85.5,64.8,29.97,ESE,123,0.0,7.0,50,0.00,,---,0.00,VWS V14.01,2013-05-10 19:29:00,
2013-05-10 15:30:00,85.3,65.7,29.97,East,93,0.0,7.0,52,0.00,,---,0.00,VWS V14.01,2013-05-10 19:30:00,
2013-05-10 15:34:00,85.1,63.8,29.97,ESE,109,0.0,6.0,49,0.00,,---,0.00,VWS V14.01,2013-05-10 19:34:00,
2013-05-10 15:39:00,85.7,66.1,29.97,South,172,0.0,6.0,52,0.00,,---,0.00,VWS V14.01,2013-05-10 19:39:00,
2013-05-10 15:44:00,85.7,64.9,29.97,ESE,114,0.0,6.0,50,0.00,,---,0.00,VWS V14.01,2013-05-10 19:44:00,
2013-05-10 15:49:00,84.5,66.1,29.96,ESE,106,0.0,6.0,54,0.00,,---,0.00,VWS V14.01,2013-05-10 19:49:00,
2013-05-10 15:54:00,84.0,63.4,29.96,ESE,109,0.0,6.0,50,0.00,,---,0.00,VWS V14.01,2013-05-10 19:54:00,
2013-05-10 15:59:00,83.4,63.4,29.96,ENE,73,0.0,6.0,51,0.00,,---,0.00,VWS V14.01,2013-05-10 19:59:00,
2013-05-10 16:00:00,84.0,66.1,29.95,ENE,68,0.0,6.0,55,0.00,,---,0.00,VWS V14.01,2013-05-10 20:00:00,
2013-05-10 16:04:00,84.1,65.7,29.95,NE,51,0.0,0.0,54,0.00,,---,0.00,VWS V14.01,2013-05-10 20:04:00,
2013-05-10 16:09:00,83.8,64.9,29.95,ESE,117,0.0,0.0,53,0.00,,---,0.00,VWS V14.01,2013-05-10 20:09:00,
2013-05-10 16:14:00,83.6,66.3,29.95,ESE,109,5.0,5.0,56,0.00,,---,0.00,VWS V14.01,2013-05-10 20:14:00,
2013-05-10 16:19:00,82.8,65.5,29.95,ESE,102,3.0,5.0,56,0.00,,---,0.00,VWS V14.01,2013-05-10 20:19:00,
2013-05-10 16:24:00,82.8,66.0,29.95,ENE,78,0.0,7.0,57,0.00,,---,0.00,VWS V14.01,2013-05-10 20:24:00,
2013-05-10 16:29:00,83.0,65.2,29.95,ESE,106,0.0,7.0,55,0.00,,---,0.00,VWS V14.01,2013-05-10 20:29:00,
2013-05-10 16:30:00,83.0,66.7,29.94,ESE,109,0.0,7.0,58,0.00,,---,0.00,VWS V14.01,2013-05-10 20:30:00,
2013-05-10 16:35:00,82.8,66.0,29.94,SSE,162,0.0,4.0,57,0.00,,---,0.00,VWS V14.01,2013-05-10 20:35:00,
2013-05-10 16:40:00,82.6,66.3,29.94,SSE,167,0.0,4.0,58,0.00,,---,0.00,VWS V14.01,2013-05-10 20:40:00,
2013-05-10 16:45:00,83.0,66.7,29.94,NE,54,0.0,4.0,58,0.00,,---,0.00,VWS V14.01,2013-05-10 20:45:00,
2013-05-10 16:50:00,82.2,65.5,29.94,East,95,0.0,4.0,57,0.00,,---,0.00,VWS V14.01,2013-05-10 20:50:00,
2013-05-10 16:55:00,82.4,67.6,29.94,ESE,116,0.0,6.0,61,0.00,,---,0.00,VWS V14.01,2013-05-10 20:55:00,
2013-05-10 17:00:00,82.2,67.4,29.94,SE,140,1.0,6.0,61,0.00,,---,0.00,VWS V14.01,2013-05-10 21:00:00,
2013-05-10 17:05:00,81.1,65.4,29.94,ESE,107,0.0,2.0,59,0.00,,---,0.00,VWS V14.01,2013-05-10 21:05:00,
2013-05-10 17:10:00,81.4,67.1,29.94,SE,144,1.0,2.0,62,0.00,,---,0.00,VWS V14.01,2013-05-10 21:10:00,
2013-05-10 17:15:00,81.1,65.9,29.93,SE,134,0.0,6.0,60,0.00,,---,0.00,VWS V14.01,2013-05-10 21:15:00,
2013-05-10 17:20:00,80.9,65.7,29.93,SE,136,0.0,6.0,60,0.00,,---,0.00,VWS V14.01,2013-05-10 21:20:00,
2013-05-10 17:25:00,80.5,66.3,29.93,ESE,103,0.0,6.0,62,0.00,,---,0.00,VWS V14.01,2013-05-10 21:25:00,
2013-05-10 17:30:00,80.3,67.0,29.93,ESE,106,0.0,6.0,64,0.00,,---,0.00,VWS V14.01,2013-05-10 21:30:00,
2013-05-10 17:35:00,79.9,66.7,29.93,East,100,0.0,7.0,64,0.00,,---,0.00,VWS V14.01,2013-05-10 21:35:00,
2013-05-10 17:40:00,79.6,66.8,29.93,East,89,0.0,8.0,65,0.00,,---,0.00,VWS V14.01,2013-05-10 21:40:00,
2013-05-10 17:45:00,79.2,67.3,29.93,ESE,113,0.0,8.0,67,0.00,,---,0.00,VWS V14.01,2013-05-10 21:45:00,
2013-05-10 17:50:00,79.0,67.6,29.93,ESE,103,0.0,8.0,68,0.00,,---,0.00,VWS V14.01,2013-05-10 21:50:00,
2013-05-10 17:55:00,78.8,67.4,29.93,ESE,117,0.0,8.0,68,0.00,,---,0.00,VWS V14.01,2013-05-10 21:55:00,
2013-05-10 17:58:00,78.8,67.4,29.93,East,89,1.0,8.0,68,0.00,,---,0.00,VWS V14.01,2013-05-10 21:58:00,
2013-05-10 18:00:00,78.8,67.8,29.92,East,92,0.0,8.0,69,0.00,,---,0.00,VWS V14.01,2013-05-10 22:00:00,
2013-05-10 18:03:00,78.6,67.6,29.92,SE,141,0.0,0.0,69,0.00,,---,0.00,VWS V14.01,2013-05-10 22:03:00,
2013-05-10 18:08:00,78.6,68.0,29.92,ESE,109,0.0,1.0,70,0.00,,---,0.00,VWS V14.01,2013-05-10 22:08:00,
2013-05-10 18:13:00,78.3,68.1,29.92,SE,124,0.0,5.0,71,0.00,,---,0.00,VWS V14.01,2013-05-10 22:13:00,
2013-05-10 18:18:00,78.3,68.5,29.92,ESE,102,0.0,5.0,72,0.00,,---,0.00,VWS V14.01,2013-05-10 22:18:00,
2013-05-10 18:23:00,78.1,68.3,29.92,East,80,0.0,5.0,72,0.00,,---,0.00,VWS V14.01,2013-05-10 22:23:00,
2013-05-10 18:28:00,77.9,69.3,29.92,ESE,102,0.0,5.0,75,0.00,,---,0.00,VWS V14.01,2013-05-10 22:28:00,
2013-05-10 18:30:00,77.9,69.3,29.92,ESE,106,0.0,5.0,75,0.00,,---,0.00,VWS V14.01,2013-05-10 22:30:00,
2013-05-10 18:33:00,77.9,69.3,29.92,ESE,113,0.0,0.0,75,0.00,,---,0.00,VWS V14.01,2013-05-10 22:33:00,
2013-05-10 18:38:00,77.7,69.2,29.92,East,100,0.0,1.0,75,0.00,,---,0.00,VWS V14.01,2013-05-10 22:38:00,
2013-05-10 18:43:00,77.6,69.8,29.92,East,88,0.0,1.0,77,0.00,,---,0.00,VWS V14.01,2013-05-10 22:43:00,
2013-05-10 18:48:00,77.4,69.6,29.92,East,79,0.0,1.0,77,0.00,,---,0.00,VWS V14.01,2013-05-10 22:48:00,
2013-05-10 18:53:00,77.2,69.4,29.92,ESE,123,0.0,4.0,77,0.00,,---,0.00,VWS V14.01,2013-05-10 22:53:00,
2013-05-10 18:58:00,77.0,69.2,29.92,East,88,0.0,4.0,77,0.00,,---,0.00,VWS V14.01,2013-05-10 22:58:00,
2013-05-10 19:00:00,77.0,69.2,29.92,East,86,0.0,4.0,77,0.00,,---,0.00,VWS V14.01,2013-05-10 23:00:00,
2013-05-10 19:03:00,76.8,69.4,29.92,ESE,119,0.0,0.0,78,0.00,,---,0.00,VWS V14.01,2013-05-10 23:03:00,
2013-05-10 19:08:00,76.8,69.4,29.92,East,86,0.0,0.0,78,0.00,,---,0.00,VWS V14.01,2013-05-10 23:08:00,
2013-05-10 19:13:00,76.7,69.3,29.92,ESE,113,0.0,0.0,78,0.00,,---,0.00,VWS V14.01,2013-05-10 23:13:00,
2013-05-10 19:18:00,76.5,69.5,29.91,East,99,0.0,0.0,79,0.00,,---,0.00,VWS V14.01,2013-05-10 23:18:00,
2013-05-10 19:23:00,76.3,69.7,29.91,SSE,158,0.0,0.0,80,0.00,,---,0.00,VWS V14.01,2013-05-10 23:23:00,
2013-05-10 19:28:00,76.1,69.5,29.91,ESE,104,0.0,1.0,80,0.00,,---,0.00,VWS V14.01,2013-05-10 23:28:00,
2013-05-10 19:30:00,76.1,69.5,29.91,ESE,104,0.0,1.0,80,0.00,,---,0.00,VWS V14.01,2013-05-10 23:30:00,
2013-05-10 19:33:00,76.1,69.8,29.91,ESE,117,0.0,0.0,81,0.00,,---,0.00,VWS V14.01,2013-05-10 23:33:00,
2013-05-10 19:38:00,76.0,69.8,29.91,SSE,158,0.0,4.0,81,0.00,,---,0.00,VWS V14.01,2013-05-10 23:38:00,
2013-05-10 19:43:00,76.0,69.8,29.91,SE,127,0.0,4.0,81,0.00,,---,0.00,VWS V14.01,2013-05-10 23:43:00,
2013-05-10 19:48:00,75.8,69.9,29.92,East,96,0.0,4.0,82,0.00,,---,0.00,VWS V14.01,2013-05-10 23:48:00,
2013-05-10 19:53:00,75.8,69.9,29.92,East,96,0.0,4.0,82,0.00,,---,0.00,VWS V14.01,2013-05-10 23:53:00,
2013-05-10 19:58:00,75.8,69.9,29.92,ENE,72,0.0,4.0,82,0.00,,---,0.00,VWS V14.01,2013-05-10 23:58:00,
2013-05-10 20:00:00,75.8,69.9,29.92,ENE,72,0.0,4.0,82,0.00,,---,0.00,VWS V14.01,2013-05-11 00:00:00,
2013-05-10 20:03:00,75.8,69.9,29.92,ENE,73,0.0,0.0,82,0.00,,---,0.00,VWS V14.01,2013-05-11 00:03:00,
2013-05-10 20:08:00,75.8,69.9,29.92,East,100,0.0,0.0,82,0.00,,---,0.00,VWS V14.01,2013-05-11 00:08:00,
2013-05-10 20:13:00,75.8,69.9,29.92,SE,138,0.0,0.0,82,0.00,,---,0.00,VWS V14.01,2013-05-11 00:13:00,
2013-05-10 20:18:00,75.6,69.7,29.92,ESE,116,0.0,2.0,82,0.00,,---,0.00,VWS V14.01,2013-05-11 00:18:00,
2013-05-10 20:23:00,75.6,69.7,29.92,ESE,106,0.0,2.0,82,0.00,,---,0.00,VWS V14.01,2013-05-11 00:23:00,
2013-05-10 20:28:00,75.4,69.5,29.92,ESE,106,0.0,2.0,82,0.00,,---,0.00,VWS V14.01,2013-05-11 00:28:00,
2013-05-10 20:30:00,75.4,69.5,29.93,ESE,106,0.0,2.0,82,0.00,,---,0.00,VWS V14.01,2013-05-11 00:30:00,
2013-05-10 20:33:00,75.3,69.4,29.93,East,88,0.0,0.0,82,0.00,,---,0.00,VWS V14.01,2013-05-11 00:33:00,
2013-05-10 20:38:00,75.3,69.4,29.93,ENE,72,0.0,0.0,82,0.00,,---,0.00,VWS V14.01,2013-05-11 00:38:00,
2013-05-10 20:43:00,75.1,69.2,29.93,East,88,0.0,0.0,82,0.00,,---,0.00,VWS V14.01,2013-05-11 00:43:00,
2013-05-10 20:48:00,75.1,69.6,29.93,East,89,0.0,1.0,83,0.00,,---,0.00,VWS V14.01,2013-05-11 00:48:00,
2013-05-10 20:53:00,74.9,69.7,29.93,SE,127,0.0,1.0,84,0.00,,---,0.00,VWS V14.01,2013-05-11 00:53:00,
2013-05-10 20:58:00,74.9,69.7,29.93,SSE,162,0.0,1.0,84,0.00,,---,0.00,VWS V14.01,2013-05-11 00:58:00,
2013-05-10 21:00:00,74.9,69.7,29.93,East,99,0.0,1.0,84,0.00,,---,0.00,VWS V14.01,2013-05-11 01:00:00,
2013-05-10 21:03:00,74.9,69.7,29.93,ESE,106,0.0,0.0,84,0.00,,---,0.00,VWS V14.01,2013-05-11 01:03:00,
2013-05-10 21:08:00,74.9,69.7,29.93,SE,128,0.0,0.0,84,0.00,,---,0.00,VWS V14.01,2013-05-11 01:08:00,
2013-05-10 21:13:00,74.7,69.6,29.93,ESE,117,0.0,0.0,84,0.00,,---,0.00,VWS V14.01,2013-05-11 01:13:00,
2013-05-10 21:18:00,74.7,69.6,29.93,SE,134,0.0,0.0,84,0.00,,---,0.00,VWS V14.01,2013-05-11 01:18:00,
2013-05-10 21:23:00,74.7,69.6,29.93,SE,134,0.0,0.0,84,0.00,,---,0.00,VWS V14.01,2013-05-11 01:23:00,
2013-05-10 21:28:00,74.6,69.8,29.93,ESE,107,0.0,0.0,85,0.00,,---,0.00,VWS V14.01,2013-05-11 01:28:00,
2013-05-10 21:30:00,74.6,69.8,29.94,ESE,107,0.0,0.0,85,0.00,,---,0.00,VWS V14.01,2013-05-11 01:30:00,
2013-05-10 21:33:00,74.6,69.8,29.94,ESE,106,0.0,1.0,85,0.00,,---,0.00,VWS V14.01,2013-05-11 01:33:00,
2013-05-10 21:38:00,74.6,69.8,29.94,SE,124,0.0,1.0,85,0.00,,---,0.00,VWS V14.01,2013-05-11 01:38:00,
2013-05-10 21:43:00,74.6,69.8,29.94,SE,124,0.0,1.0,85,0.00,,---,0.00,VWS V14.01,2013-05-11 01:43:00,
2013-05-10 21:48:00,74.4,69.9,29.94,SE,124,0.0,1.0,86,0.00,,---,0.00,VWS V14.01,2013-05-11 01:48:00,
2013-05-10 21:53:00,74.4,69.9,29.94,SE,124,0.0,1.0,86,0.00,,---,0.00,VWS V14.01,2013-05-11 01:53:00,
2013-05-10 21:58:00,74.4,69.9,29.94,ESE,116,0.0,1.0,86,0.00,,---,0.00,VWS V14.01,2013-05-11 01:58:00,
2013-05-10 22:00:00,74.4,69.9,29.93,SE,134,0.0,1.0,86,0.00,,---,0.00,VWS V14.01,2013-05-11 02:00:00,
2013-05-10 22:03:00,74.4,69.9,29.93,East,96,0.0,3.0,86,0.00,,---,0.00,VWS V14.01,2013-05-11 02:03:00,
2013-05-10 22:08:00,74.4,69.9,29.93,ESE,113,0.0,3.0,86,0.00,,---,0.00,VWS V14.01,2013-05-11 02:08:00,
2013-05-10 22:13:00,74.4,69.9,29.93,ESE,123,0.0,3.0,86,0.00,,---,0.00,VWS V14.01,2013-05-11 02:13:00,
2013-05-10 22:18:00,74.4,69.6,29.93,ESE,120,0.0,3.0,85,0.00,,---,0.00,VWS V14.01,2013-05-11 02:18:00,
2013-05-10 22:23:00,74.4,69.9,29.93,ESE,123,0.0,3.0,86,0.00,,---,0.00,VWS V14.01,2013-05-11 02:23:00,
2013-05-10 22:28:00,74.4,69.9,29.93,SE,126,0.0,3.0,86,0.00,,---,0.00,VWS V14.01,2013-05-11 02:28:00,
2013-05-10 22:30:00,74.4,69.9,29.94,SE,128,0.0,3.0,86,0.00,,---,0.00,VWS V14.01,2013-05-11 02:30:00,
2013-05-10 22:33:00,74.2,69.8,29.94,ESE,117,0.0,0.0,86,0.00,,---,0.00,VWS V14.01,2013-05-11 02:33:00,
2013-05-10 22:38:00,74.2,69.8,29.94,ESE,117,0.0,0.0,86,0.00,,---,0.00,VWS V14.01,2013-05-11 02:38:00,
2013-05-10 22:43:00,74.2,69.8,29.94,South,189,0.0,1.0,86,0.00,,---,0.00,VWS V14.01,2013-05-11 02:43:00,
2013-05-10 22:48:00,74.0,69.2,29.94,South,186,0.0,1.0,85,0.00,,---,0.00,VWS V14.01,2013-05-11 02:48:00,
2013-05-10 22:53:00,74.0,69.2,29.94,SE,136,0.0,1.0,85,0.00,,---,0.00,VWS V14.01,2013-05-11 02:53:00,
2013-05-10 22:58:00,73.9,69.1,29.94,SE,131,0.0,1.0,85,0.00,,---,0.00,VWS V14.01,2013-05-11 02:58:00,
2013-05-10 23:00:00,73.9,69.1,29.95,SE,131,0.0,1.0,85,0.00,,---,0.00,VWS V14.01,2013-05-11 03:00:00,
2013-05-10 23:03:00,73.7,68.9,29.95,SE,131,0.0,0.0,85,0.00,,---,0.00,VWS V14.01,2013-05-11 03:03:00,
2013-05-10 23:08:00,73.5,68.7,29.95,SE,127,0.0,0.0,85,0.00,,---,0.00,VWS V14.01,2013-05-11 03:08:00,
2013-05-10 23:13:00,73.5,68.7,29.95,SE,127,0.0,0.0,85,0.00,,---,0.00,VWS V14.01,2013-05-11 03:13:00,
2013-05-10 23:18:00,73.3,68.5,29.96,SE,127,0.0,0.0,85,0.00,,---,0.00,VWS V14.01,2013-05-11 03:18:00,
2013-05-10 23:23:00,73.2,68.8,29.96,SE,127,0.0,0.0,86,0.00,,---,0.00,VWS V14.01,2013-05-11 03:23:00,
2013-05-10 23:28:00,73.0,68.6,29.96,SE,127,0.0,0.0,86,0.00,,---,0.00,VWS V14.01,2013-05-11 03:28:00,
2013-05-10 23:30:00,73.0,68.6,29.96,SE,127,0.0,0.0,86,0.00,,---,0.00,VWS V14.01,2013-05-11 03:30:00,
2013-05-10 23:33:00,72.8,68.4,29.96,SE,127,0.0,0.0,86,0.00,,---,0.00,VWS V14.01,2013-05-11 03:33:00,
2013-05-10 23:38:00,72.7,68.3,29.96,SE,127,0.0,0.0,86,0.00,,---,0.00,VWS V14.01,2013-05-11 03:38:00,
2013-05-10 23:43:00,72.5,68.4,29.96,SE,127,0.0,0.0,87,0.00,,---,0.00,VWS V14.01,2013-05-11 03:43:00,
2013-05-10 23:48:00,72.3,68.2,29.96,SE,127,0.0,0.0,87,0.00,,---,0.00,VWS V14.01,2013-05-11 03:48:00,
2013-05-10 23:53:00,72.1,68.3,29.96,SE,127,0.0,0.0,88,0.00,,---,0.00,VWS V14.01,2013-05-11 03:53:00,
2013-05-10 23:58:00,72.0,68.3,29.96,SE,127,0.0,0.0,88,0.00,,---,0.00,VWS V14.01,2013-05-11 03:58:00,